Home   Weather   Nadiad   Past weeks

Flag for India Past Weather in Nadiad, Gujarat, India — Yesterday and Last 2 Weeks

70 °F


Feels Like: 70 °F
Forecast: 69 / 93 °F
Wind: No wind

Location: Ahmadabad Airport

Current Time: Oct 27, 2016 at 6:37:15 AM

Latest Report: Oct 27, 2016 at 6:00 AM

Visibility: 2 mi

Pressure: 29.95 "Hg

Humidity: 78%

Dew Point: 63 °F

Location of NadiadLocation

Past Weather in Nadiad — Graph


Nadiad Temperature Yesterday

Maximum temperature yesterday: 91 °F (at 1:30 PM)
Minimum temperature yesterday: 70 °F (at 7:00 AM)
Average temperature yesterday: 80 °F

High & Low Weather Summary for the Past Weeks

High97 °F (Oct 17, 3:00 PM)89% (Oct 12, 5:00 AM)29.95 "Hg (Oct 12, 5:00 AM)
Low70 °F (Oct 20, 6:30 AM)26% (Oct 18, 3:00 PM)29.74 "Hg (Oct 12, 3:00 PM)
Average82 °F61%29.85 "Hg
* Reported Oct 12 4:30 AM — Oct 27 5:00 AM, Nadiad, Weather by CustomWeather, © 2016

Note: Actual official high and low records may vary slightly from our data, if they occured in-between our weather recording intervals... More about our weather records


Nadiad Weather History for the Previous 24 Hours

Scroll right to see more
Time TempWeatherWind HumidityBarometerVisibility
5:00 AM
Thu, Oct 27
72 °FHaze.No wind78%29.92 "Hg2 mi
4:00 AM73 °FHaze.No wind69%29.89 "Hg2 mi
3:30 AM72 °FHaze.No wind73%29.89 "Hg2 mi
3:00 AM73 °FHaze.No wind74%29.89 "Hg2 mi
2:30 AM75 °FHaze.No wind65%29.89 "Hg2 mi
2:00 AM77 °FHaze.No wind61%29.92 "Hg2 mi
1:30 AM75 °FHaze.No wind69%29.92 "Hg2 mi
1:00 AM77 °FHaze.No wind65%29.92 "Hg2 mi
12:30 AM77 °FHaze.No wind65%29.92 "Hg2 mi
12:00 AM75 °FHaze.No wind69%29.92 "Hg2 mi
11:30 PM
Wed, Oct 26
75 °FHaze.No wind78%29.92 "Hg2 mi
11:00 PM77 °FHaze.No wind69%29.92 "Hg2 mi
10:30 PM77 °FHaze.No wind69%29.92 "Hg2 mi
10:00 PM79 °FHaze.No wind70%29.92 "Hg2 mi
9:30 PM79 °FHaze.No wind70%29.92 "Hg2 mi
9:00 PM79 °FHaze.No wind70%29.92 "Hg2 mi
8:30 PM82 °FClear.No wind55%29.92 "Hg2 mi
8:00 PM82 °FClear.No wind51%29.92 "Hg2 mi
7:00 PM84 °FPassing clouds.No wind48%29.89 "Hg2 mi
6:30 PM84 °FPassing clouds.No wind48%29.86 "Hg2 mi
5:30 PM90 °FPassing clouds.3 mph38%29.86 "Hg3 mi
3:30 PM91 °FPassing clouds.3 mph34%29.86 "Hg4 mi
3:00 PM91 °FPassing clouds.3 mph36%29.86 "Hg4 mi
2:30 PM91 °FClear.7 mph36%29.86 "Hg4 mi
2:00 PM91 °FClear.6 mph36%29.86 "Hg4 mi
1:30 PM91 °FClear.3 mph38%29.86 "Hg4 mi
1:00 PM90 °FClear.6 mph43%29.89 "Hg4 mi
12:30 PM90 °FClear.No wind43%29.89 "Hg4 mi
12:00 PM90 °FClear.2 mph46%29.92 "Hg4 mi
11:30 AM88 °FClear.No wind52%29.92 "Hg3 mi
11:00 AM88 °FClear.3 mph49%29.95 "Hg3 mi
10:30 AM86 °FClear.3 mph52%29.95 "Hg3 mi
10:00 AM84 °FPassing clouds.3 mph58%29.95 "Hg2 mi
9:30 AM81 °FHaze.5 mph66%29.95 "Hg2 mi
9:00 AM77 °FHaze.3 mph74%29.95 "Hg1 mi
8:30 AM75 °FFog.3 mph78%29.92 "Hg1 mi
8:00 AM73 °FFog.3 mph78%29.92 "Hg1 mi
7:30 AM72 °FFog.No wind83%29.89 "Hg1 mi
7:00 AM70 °FFog.No wind83%29.89 "Hg1 mi
6:30 AM72 °FFog.No wind83%29.89 "Hg2 mi
6:00 AM72 °FHaze.No wind78%29.86 "Hg2 mi
Weather by CustomWeather, © 2016

See weather overviewHow to use our weather pages